Wetbulb
59.65 62.68 70.52 70.16 69.44 70.09 71.12 70.43 69.51 68.73 67.38 67.17 66.90 66.90 66.78 66.57 66.45 66.55 66.58 66.52 66.36 66.60 66.54 66.49 66.47 66.61 67.01 66.95 66.76 66.65 66.02 65.94 65.63 65.79 66.99 67.73 67.98 67.91 67.84 67.93 67.39 65.47 67.75
61.57 66.37 69.86 70.97 70.38 70.80 70.67 70.38 69.75 68.89 67.44 67.11 67.10 67.02 67.10 66.89 66.74 66.72 67.06 67.25 67.69 66.28 66.35 66.31 66.40 66.87 66.93 66.71 66.49 66.22 66.08 66.30 66.33 66.32 66.03 66.10 67.54 67.60 68.00 67.51 67.15 65.72 67.12
65.41 67.99 69.06 70.39 71.45 70.82 70.67 70.03 69.34 68.68 67.18 67.17 67.06 67.20 66.70 66.72 67.14 66.55 66.09 67.18 67.49 66.18 66.20 65.95 66.61 66.84 66.76 66.63 66.82 66.39 66.48 66.30 65.95 65.69 65.34 61.96 63.56 67.41 67.82 67.28 67.07 66.79 66.57
67.34 68.20 68.67 69.56 70.69 70.68 69.98 69.39 68.96 68.74 67.97 67.30 67.22 67.73 66.20 66.55 66.43 65.89 66.44 66.50 66.82 66.76 66.00 66.12 66.17 66.68 66.69 66.91 66.61 66.42 66.25 65.88 65.20 64.30 61.81 62.33 64.01 67.26 67.45 67.00 66.43 66.24 65.87
66.75 67.53 67.92 69.42 70.19 70.00 69.33 69.08 68.68 68.64 68.34 67.80 68.31 67.84 66.28 66.21 65.58 66.24 65.96 65.15 67.32 66.30 66.15 65.24 66.15 66.54 66.18 66.66 66.47 66.12 65.71 64.98 63.80 61.68 60.62 62.59 63.35 66.23 66.98 66.03 65.20 64.62 63.85
65.82 66.68 67.81 69.09 69.65 69.49 69.33 69.16 69.13 68.59 68.19 68.44 68.69 67.33 65.92 66.41 66.30 65.92 65.50 65.42 65.47 65.57 65.78 65.87 66.18 66.22 66.38 66.25 65.89 65.44 64.92 64.29 62.17 59.91 60.41 62.68 63.36 66.54 66.67 65.70 64.00 63.43 62.87
65.39 66.43 67.07 68.24 68.54 68.93 69.41 69.43 69.60 69.29 69.13 69.17 68.42 67.15 66.43 66.06 66.28 66.18 65.87 66.08 65.88 65.89 65.63 65.77 65.83 66.01 66.01 65.49 64.94 64.45 63.57 62.68 59.23 59.33 60.06 61.45 63.77 66.32 65.96 64.91 63.98 63.28 62.44
65.59 65.94 66.47 65.57 66.85 67.57 68.24 68.97 69.19 69.32 69.55 69.18 67.62 66.47 66.26 65.31 65.22 65.46 65.75 65.66 65.55 65.55 65.62 65.71 65.76 65.82 65.16 64.47 63.85 63.05 61.94 60.80 58.93 58.81 59.22 60.74 65.15 65.58 65.33 64.58 63.79 63.05 62.25
65.74 65.14 65.34 65.02 65.01 64.81 66.07 66.71 67.53 68.40 68.13 67.77 66.83 67.11 66.71 66.57 66.46 66.00 66.04 65.52 65.47 65.37 65.66 65.62 65.47 64.85 63.79 63.23 61.93 60.33 59.61 59.40 56.59 58.10 60.14 60.55 64.66 65.45 65.09 64.46 63.34 62.71 61.91
64.95 64.41 64.89 64.06 63.81 63.24 63.39 63.55 64.67 65.79 66.06 66.19 66.02 65.16 64.48 64.86 65.14 64.87 64.13 65.50 65.40 65.57 65.75 65.27 63.95 63.24 62.80 61.61 60.15 58.49 57.03 56.63 54.31 56.12 58.24 61.82 64.19 64.68 64.60 63.78 63.08 62.20 61.19
63.61 64.14 64.70 63.88 62.79 62.16 62.37 61.53 62.56 63.57 64.06 64.00 63.36 62.16 61.35 61.38 61.55 61.47 61.86 63.78 65.05 66.10 65.26 63.50 62.52 61.24 59.70 58.59 57.68 56.45 54.93 52.28 52.87 53.78 56.06 62.81 63.79 64.07 63.71 63.00 62.35 61.18 60.69
60.68 62.27 64.13 64.45 62.45 61.89 64.01 61.56 62.18 62.91 62.09 61.33 60.18 59.80 59.80 59.69 59.83 60.08 59.21 59.93 61.79 64.20 64.13 62.47 61.05 58.75 56.79 55.82 54.28 53.92 51.62 50.58 51.25 51.95 55.51 62.12 62.87 63.33 62.98 62.26 61.33 60.58 59.44
60.64 61.51 62.99 63.54 62.19 61.85 62.05 61.06 60.96 60.62 59.89 59.26 58.59 58.74 59.01 59.25 58.46 58.20 57.77 58.17 58.31 59.25 60.85 59.53 56.72 55.04 54.09 53.52 52.20 51.15 49.37 48.88 48.79 50.25 54.82 60.01 60.35 61.46 61.58 60.54 59.74 58.85 58.32
60.04 60.68 62.08 62.98 62.00 60.46 61.60 61.27 60.49 60.16 58.52 57.92 58.26 58.82 58.55 58.21 57.55 57.30 57.31 56.45 56.40 57.10 55.66 55.06 54.66 53.73 51.70 49.84 50.12 48.66 46.69 46.34 46.75 48.18 51.72 56.48 59.29 58.80 58.92 58.43 58.26 58.42 56.86
59.45 60.34 61.46 62.51 62.43 60.95 61.40 60.35 60.06 59.40 58.68 58.25 58.52 59.22 59.16 57.86 57.48 57.68 57.25 55.68 56.20 55.76 55.04 54.30 53.35 53.31 50.07 49.52 48.09 46.33 44.24 43.77 44.03 45.00 46.30 53.91 56.79 57.02 57.46 57.45 57.25 56.64 57.00
60.12 60.52 61.56 61.77 62.71 61.44 61.29 60.44 59.96 58.55 58.69 58.38 58.53 59.15 59.14 58.17 58.08 58.41 56.41 55.26 54.85 54.80 54.23 53.71 52.85 51.75 51.31 49.86 47.12 44.70 41.84 40.86 40.94 41.14 41.81 44.04 53.06 54.40 55.27 55.83 56.05 56.06 55.60
61.28 61.55 61.21 61.53 62.38 61.16 60.47 59.80 59.06 58.80 58.46 58.18 58.58 59.13 59.04 59.17 59.51 59.89 56.35 54.60 54.41 54.28 53.86 53.39 52.50 52.17 49.27 47.92 44.50 41.01 40.03 39.15 38.65 38.49 38.72 39.18 41.24 49.46 52.69 53.92 54.37 54.62 54.81
61.66 61.03 60.90 61.63 61.46 60.98 60.03 59.72 59.07 58.23 57.79 58.13 58.33 58.51 58.96 59.34 59.88 56.80 55.34 54.56 54.87 54.49 53.82 52.78 51.32 49.02 46.81 44.02 39.63 38.72 38.06 38.21 37.63 36.87 36.62 36.60 36.82 38.15 44.33 50.81 51.97 52.61 53.26
61.19 60.53 59.98 60.52 60.65 60.63 59.74 59.45 58.52 57.65 57.50 57.80 57.85 58.15 58.83 59.17 58.48 56.68 54.94 54.47 55.01 54.16 53.06 52.69 49.99 47.29 43.95 41.94 39.18 37.49 36.73 36.31 35.98 36.55 34.48 34.11 34.72 33.92 34.30 44.38 46.66 49.10 50.67
59.80 60.18 60.04 60.68 60.93 60.91 60.01 59.27 57.70 56.45 56.69 57.09 57.93 58.27 58.72 58.30 57.36 55.87 53.75 54.50 54.88 53.64 52.07 50.95 49.49 46.75 43.09 40.97 40.66 37.42 35.77 35.26 34.59 33.39 32.86 33.76 32.40 32.48 32.65 33.03 32.89 36.89 47.32
58.86 59.10 59.38 60.00 60.33 60.77 58.98 58.28 57.59 57.03 56.94 56.09 56.81 57.75 57.98 57.35 56.43 54.86 53.14 53.63 54.27 53.41 52.51 51.12 48.38 44.27 41.54 40.21 38.05 36.93 36.20 34.99 33.61 32.62 32.06 31.26 30.93 30.82 31.30 31.29 31.77 31.65 33.39
58.68 58.30 58.53 59.71 59.41 60.32 60.16 60.01 58.10 57.85 55.25 56.31 55.79 56.36 57.51 56.08 55.16 54.21 52.71 52.47 53.89 52.10 51.18 50.52 48.35 44.05 42.00 41.29 38.94 37.14 34.24 35.12 34.77 33.61 32.05 32.21 29.60 29.73 29.94 30.94 30.89 31.08 30.65
58.46 57.98 58.07 58.66 59.17 59.88 60.03 58.96 54.03 53.67 52.24 52.68 54.17 54.82 54.51 54.86 53.88 53.21 52.28 51.87 52.13 53.27 51.60 50.98 49.16 45.00 41.48 41.69 40.77 39.81 35.06 35.41 34.06 33.72 32.47 31.58 30.02 28.69 27.72 28.89 30.14 31.01 29.58
58.25 58.64 58.72 58.51 58.69 59.53 59.80 57.96 57.74 56.96 55.85 55.60 57.25 55.38 53.17 53.34 52.52 52.07 51.49 50.61 51.00 52.11 51.83 51.66 49.84 46.57 43.67 42.05 40.77 43.10 40.96 38.75 35.25 31.77 32.60 31.44 30.72 30.08 27.78 27.53 27.76 28.99 28.04
57.39 57.87 58.45 58.46 58.25 59.15 59.01 58.94 57.92 57.50 57.62 51.80 50.58 52.71 52.79 50.85 51.21 50.82 50.28 48.93 49.08 50.57 51.80 51.25 49.42 47.07 46.37 43.45 41.70 39.77 38.33 37.11 36.11 33.72 30.29 30.21 30.12 29.73 28.49 28.00 27.16 26.56 27.64
56.80 57.06 57.52 57.67 57.92 58.48 58.88 59.00 58.22 57.80 55.00 51.02 51.49 53.05 52.68 49.63 49.23 49.11 48.73 47.74 47.01 48.90 49.67 50.83 50.30 47.99 46.75 44.01 43.33 40.73 39.02 37.99 35.80 33.44 31.49 29.71 29.68 29.24 28.47 27.80 27.04 26.71 26.96
MSLP
1017.21 1017.02 1017.20 1017.55 1017.94 1018.21 1018.47 1018.82 1019.12 1019.50 1019.78 1019.95 1020.15 1020.25 1020.48 1020.63 1020.78 1020.88 1020.90 1020.91 1020.91 1021.02 1021.15 1021.24 1021.29 1021.30 1021.33 1021.35 1021.31 1021.27 1021.18 1021.09 1020.98 1020.90 1020.79 1020.57 1020.44 1020.43 1020.46 1020.52 1020.57 1020.56 1020.39
1016.59 1016.89 1017.11 1017.48 1017.85 1018.19 1018.59 1018.95 1019.30 1019.69 1019.95 1020.17 1020.34 1020.57 1020.70 1020.80 1020.97 1021.11 1021.13 1021.11 1021.14 1021.19 1021.41 1021.53 1021.58 1021.67 1021.68 1021.59 1021.57 1021.62 1021.57 1021.52 1021.37 1021.24 1021.15 1021.08 1020.89 1020.80 1020.80 1020.93 1020.94 1020.84 1020.83
1016.46 1016.76 1017.04 1017.44 1017.84 1018.33 1018.71 1019.12 1019.53 1019.92 1020.14 1020.30 1020.55 1020.77 1020.94 1021.07 1021.22 1021.36 1021.43 1021.39 1021.37 1021.51 1021.69 1021.74 1021.84 1021.97 1021.93 1021.76 1021.79 1021.93 1021.95 1021.86 1021.74 1021.62 1021.53 1021.50 1021.33 1021.10 1021.21 1021.30 1021.27 1021.32 1021.46
1016.57 1016.75 1017.28 1017.70 1018.05 1018.52 1018.98 1019.31 1019.75 1020.08 1020.30 1020.51 1020.68 1020.96 1021.12 1021.31 1021.42 1021.61 1021.64 1021.67 1021.66 1021.79 1022.07 1022.13 1022.18 1022.26 1022.27 1022.14 1022.18 1022.24 1022.28 1022.31 1022.22 1022.08 1022.02 1021.87 1021.69 1021.62 1021.66 1021.73 1021.94 1022.09 1022.10
1016.90 1017.12 1017.48 1017.99 1018.30 1018.72 1019.15 1019.47 1019.88 1020.18 1020.47 1020.56 1020.84 1021.06 1021.32 1021.56 1021.69 1021.94 1021.99 1022.02 1022.06 1022.12 1022.50 1022.52 1022.60 1022.62 1022.55 1022.59 1022.59 1022.70 1022.78 1022.82 1022.69 1022.56 1022.47 1022.28 1022.19 1022.11 1022.15 1022.55 1022.67 1022.77 1022.85
1017.23 1017.52 1017.78 1018.21 1018.62 1018.93 1019.32 1019.65 1020.00 1020.30 1020.62 1020.81 1021.03 1021.30 1021.55 1021.82 1022.05 1022.21 1022.35 1022.31 1022.40 1022.60 1022.69 1022.86 1022.94 1022.91 1022.94 1023.01 1023.14 1023.27 1023.33 1023.26 1023.12 1023.02 1022.86 1022.72 1022.54 1022.50 1022.66 1022.90 1023.28 1023.39 1023.52
1017.52 1017.80 1018.09 1018.51 1018.83 1019.10 1019.43 1019.71 1020.06 1020.36 1020.59 1020.88 1021.21 1021.55 1021.90 1022.11 1022.38 1022.52 1022.59 1022.69 1022.83 1022.95 1022.98 1023.15 1023.24 1023.24 1023.35 1023.58 1023.71 1023.82 1023.85 1023.79 1023.69 1023.55 1023.39 1023.25 1023.04 1023.05 1023.20 1023.30 1023.74 1023.89 1023.96
1017.68 1017.96 1018.31 1018.70 1019.12 1019.35 1019.67 1019.83 1020.09 1020.37 1020.65 1020.94 1021.36 1021.89 1022.11 1022.29 1022.51 1022.69 1022.87 1022.99 1023.13 1023.27 1023.33 1023.47 1023.60 1023.77 1023.96 1024.15 1024.29 1024.35 1024.41 1024.30 1024.17 1024.15 1024.03 1023.83 1023.56 1023.49 1023.57 1023.90 1024.15 1024.37 1024.49
1017.73 1018.14 1018.44 1018.88 1019.26 1019.56 1019.87 1020.09 1020.28 1020.56 1020.89 1021.19 1021.68 1022.03 1022.26 1022.49 1022.75 1022.98 1023.14 1023.20 1023.31 1023.36 1023.60 1023.75 1023.94 1024.25 1024.50 1024.70 1024.91 1024.97 1024.94 1024.85 1024.79 1024.71 1024.49 1024.33 1024.03 1023.99 1024.20 1024.45 1024.62 1024.78 1024.92
1017.92 1018.35 1018.61 1019.02 1019.39 1019.78 1020.15 1020.36 1020.55 1020.78 1021.08 1021.50 1021.90 1022.24 1022.54 1022.77 1023.05 1023.24 1023.40 1023.44 1023.46 1023.55 1023.87 1024.07 1024.48 1024.72 1025.09 1025.26 1025.33 1025.39 1025.43 1025.30 1025.42 1025.29 1025.11 1024.78 1024.53 1024.52 1024.58 1024.75 1025.10 1025.18 1025.44
1018.16 1018.55 1018.79 1019.15 1019.56 1019.90 1020.27 1020.57 1020.74 1021.05 1021.41 1021.79 1022.16 1022.51 1022.84 1023.06 1023.33 1023.54 1023.64 1023.63 1023.69 1023.80 1024.25 1024.68 1024.96 1025.31 1025.56 1025.85 1025.97 1026.08 1026.01 1026.21 1026.03 1025.89 1025.61 1025.21 1025.03 1024.99 1025.12 1025.25 1025.43 1025.65 1025.87
1017.82 1018.34 1018.58 1019.02 1019.54 1019.96 1020.24 1020.77 1020.97 1021.26 1021.71 1022.04 1022.37 1022.75 1023.06 1023.23 1023.45 1023.61 1023.81 1024.04 1024.05 1024.21 1024.67 1025.09 1025.42 1025.69 1025.95 1026.27 1026.44 1026.62 1026.86 1026.86 1026.72 1026.54 1026.22 1025.71 1025.68 1025.57 1025.56 1025.76 1025.97 1026.20 1026.36
1017.46 1018.06 1018.36 1018.75 1019.43 1019.90 1020.28 1020.80 1021.16 1021.41 1021.80 1022.19 1022.49 1022.82 1023.09 1023.31 1023.61 1023.86 1024.08 1024.26 1024.48 1024.70 1025.13 1025.55 1025.99 1026.16 1026.39 1026.69 1026.95 1027.26 1027.51 1027.51 1027.52 1027.29 1026.88 1026.25 1026.15 1026.23 1026.19 1026.25 1026.47 1026.62 1026.75
1017.23 1017.87 1018.25 1018.56 1019.32 1019.86 1020.14 1020.64 1021.14 1021.49 1021.86 1022.23 1022.52 1022.85 1023.13 1023.42 1023.74 1024.09 1024.27 1024.51 1024.76 1025.08 1025.57 1025.97 1026.32 1026.55 1026.85 1027.17 1027.46 1027.86 1028.12 1028.17 1028.23 1028.10 1027.73 1027.12 1026.86 1026.90 1026.84 1026.82 1026.79 1026.93 1027.11
1017.02 1017.60 1018.09 1018.33 1018.93 1019.60 1019.96 1020.51 1020.98 1021.39 1021.68 1022.01 1022.44 1022.73 1022.99 1023.38 1023.71 1024.07 1024.39 1024.68 1024.95 1025.24 1025.67 1026.24 1026.63 1026.87 1027.23 1027.52 1028.05 1028.44 1028.92 1028.94 1028.88 1028.94 1028.91 1028.27 1027.91 1027.83 1027.64 1027.54 1027.49 1027.41 1027.58
1016.53 1017.05 1017.81 1018.21 1018.58 1019.26 1019.72 1020.25 1020.71 1021.22 1021.50 1021.85 1022.21 1022.52 1022.79 1023.18 1023.51 1023.96 1024.47 1024.84 1025.20 1025.51 1025.91 1026.31 1026.78 1027.25 1027.54 1027.88 1028.51 1028.96 1029.41 1029.53 1029.50 1029.66 1029.81 1029.61 1029.05 1028.78 1028.44 1028.13 1028.03 1027.84 1027.90
1015.61 1016.54 1017.30 1017.93 1018.34 1018.99 1019.46 1020.00 1020.46 1020.86 1021.28 1021.67 1021.93 1022.22 1022.53 1022.92 1023.28 1023.59 1024.29 1024.94 1025.32 1025.71 1026.11 1026.51 1026.94 1027.25 1027.86 1028.39 1029.08 1029.57 1029.77 1029.96 1030.25 1030.19 1030.34 1030.30 1030.20 1029.92 1029.53 1029.09 1028.89 1028.74 1028.47
1015.46 1016.18 1017.04 1017.52 1018.04 1018.65 1019.26 1019.69 1020.16 1020.62 1020.98 1021.37 1021.62 1021.99 1022.27 1022.65 1022.99 1023.65 1024.15 1024.77 1025.18 1025.71 1026.13 1026.60 1027.09 1027.44 1028.19 1028.96 1029.83 1030.26 1030.38 1030.42 1030.71 1030.68 1030.77 1030.89 1030.89 1031.04 1030.76 1030.22 1029.60 1029.32 1029.15
1015.11 1015.98 1016.67 1017.13 1017.64 1018.30 1018.92 1019.45 1019.93 1020.31 1020.72 1021.09 1021.37 1021.72 1021.95 1022.36 1022.87 1023.40 1023.92 1024.63 1025.02 1025.55 1026.12 1026.50 1027.14 1027.51 1028.61 1029.41 1030.07 1030.69 1030.91 1031.09 1031.28 1031.11 1031.40 1031.51 1031.37 1031.39 1031.58 1031.24 1030.88 1030.38 1029.82
1014.93 1015.48 1016.05 1016.54 1017.22 1017.95 1018.56 1019.18 1019.82 1020.28 1020.50 1020.77 1021.03 1021.31 1021.65 1022.08 1022.57 1023.16 1023.79 1024.33 1024.94 1025.57 1026.13 1026.67 1027.16 1027.84 1028.64 1029.48 1030.28 1031.05 1031.35 1031.39 1031.70 1031.80 1031.66 1031.61 1031.71 1031.89 1031.96 1031.94 1031.63 1031.39 1030.80
1014.69 1015.04 1015.53 1016.06 1016.76 1017.48 1018.26 1018.79 1019.49 1019.81 1020.18 1020.54 1020.68 1020.86 1021.32 1021.75 1022.26 1022.91 1023.56 1024.15 1024.66 1025.22 1025.81 1026.46 1027.49 1028.22 1029.33 1029.74 1030.43 1031.38 1031.64 1031.67 1031.91 1031.94 1031.86 1032.00 1032.15 1032.26 1032.19 1032.19 1032.03 1032.02 1031.91
1013.79 1014.31 1014.92 1015.26 1016.03 1016.76 1017.30 1018.00 1018.68 1019.33 1019.83 1019.99 1020.31 1020.59 1020.89 1021.35 1021.93 1022.51 1023.00 1023.68 1024.23 1025.02 1025.68 1026.17 1026.68 1027.97 1028.81 1029.18 1029.82 1030.81 1031.53 1031.97 1031.96 1032.03 1031.94 1031.94 1032.28 1032.58 1032.55 1032.37 1032.40 1032.39 1032.33
1013.00 1013.23 1013.92 1014.56 1015.18 1015.93 1016.77 1017.63 1018.53 1019.28 1019.92 1020.23 1020.33 1020.53 1020.73 1021.06 1021.57 1022.09 1022.62 1023.11 1023.76 1024.29 1025.07 1025.74 1026.28 1026.72 1027.94 1028.85 1028.88 1029.33 1030.82 1030.96 1031.59 1031.94 1032.09 1031.96 1032.35 1032.57 1032.58 1032.60 1032.43 1032.42 1032.62
1011.26 1012.39 1013.06 1013.68 1014.33 1015.24 1015.98 1016.80 1017.36 1017.87 1018.64 1018.90 1019.20 1019.91 1020.35 1020.81 1021.29 1021.77 1022.20 1022.73 1023.27 1023.84 1024.39 1024.87 1025.40 1026.16 1026.94 1028.01 1028.95 1028.91 1029.05 1029.59 1030.65 1031.90 1032.02 1031.92 1032.28 1032.29 1032.60 1032.40 1032.45 1032.60 1032.84
1010.89 1011.51 1012.26 1013.07 1013.63 1014.34 1015.06 1015.57 1016.38 1017.08 1017.54 1018.21 1018.83 1019.51 1020.08 1020.55 1020.90 1021.37 1021.76 1022.33 1022.85 1023.38 1023.81 1024.30 1024.80 1025.38 1026.09 1026.97 1027.77 1028.61 1029.28 1029.52 1029.82 1030.51 1031.38 1031.76 1032.11 1032.19 1032.44 1032.33 1032.40 1032.60 1032.62
1010.02 1010.86 1011.36 1011.98 1012.43 1013.29 1014.05 1014.58 1015.23 1015.96 1016.90 1017.80 1018.42 1019.01 1019.59 1020.14 1020.57 1020.88 1021.36 1021.91 1022.40 1022.80 1023.24 1023.57 1023.95 1024.76 1025.41 1025.98 1026.79 1027.24 1027.75 1028.63 1029.35 1029.71 1030.48 1031.11 1031.59 1032.05 1032.26 1032.09 1032.23 1032.24 1032.38
Wind_Speed
4 7 10 15 15 15 18 18 19 16 16 16 15 16 14 15 14 13 13 14 14 14 15 14 14 14 14 14 15 15 16 15 14 13 13 11 13 14 15 16 15 12 22
8 6 10 15 15 16 18 18 18 15 16 16 15 15 15 15 14 13 12 12 14 13 14 14 14 14 13 12 13 15 14 14 13 12 12 11 12 14 17 17 18 19 24
10 7 9 16 17 18 18 17 17 15 16 16 16 15 14 14 13 12 12 10 13 14 13 13 14 13 12 11 16 15 15 14 13 12 11 5 5 13 18 20 23 24 23
9 10 9 15 18 18 17 17 15 14 14 15 15 15 14 12 13 12 11 11 10 14 13 12 13 12 13 16 17 15 16 15 14 14 6 5 5 15 19 23 23 23 23
9 9 12 16 17 17 17 16 15 14 14 15 14 15 14 12 12 12 10 10 13 16 13 12 12 13 13 16 17 17 17 17 16 11 7 6 5 15 23 23 23 23 24
9 9 12 16 16 17 16 16 15 15 15 14 13 14 12 11 11 11 10 10 12 13 12 12 12 12 16 18 18 18 17 16 14 8 7 7 6 18 22 24 21 22 23
10 9 11 14 15 16 15 16 15 14 14 14 15 13 12 11 10 11 10 11 12 12 11 11 12 13 17 18 18 17 16 16 9 8 8 7 8 20 21 22 20 21 21
13 9 9 11 12 13 13 13 13 12 12 15 14 12 11 11 10 11 10 10 10 9 9 12 13 16 19 18 18 19 18 15 10 8 7 6 13 18 19 20 20 20 21
11 9 8 7 9 10 10 9 11 11 11 13 12 11 10 9 10 10 9 8 8 7 12 12 17 18 17 18 18 18 17 16 9 7 7 4 13 18 19 20 19 20 22
9 7 9 7 7 6 6 9 10 11 12 12 10 10 9 9 9 8 7 5 6 9 16 17 17 17 18 18 18 18 15 15 8 7 5 7 17 18 20 20 20 21 21
10 11 9 8 6 6 6 6 9 10 10 10 8 8 7 4 5 5 3 5 5 12 18 17 18 18 18 18 18 16 14 6 6 5 4 14 18 18 19 19 20 19 20
16 15 11 10 8 7 6 5 5 6 4 5 5 6 4 5 4 3 4 8 8 15 18 17 16 16 11 5 6 11 6 6 6 5 5 14 17 18 19 19 18 19 18
16 13 15 13 8 8 6 4 2 3 3 3 6 5 4 3 3 2 2 3 4 9 7 8 6 5 6 6 6 6 7 7 5 5 11 14 13 17 17 17 17 16 16
17 17 16 14 9 6 5 5 4 4 3 3 4 5 4 3 3 3 2 3 4 3 6 5 4 7 8 8 9 8 8 6 5 4 10 18 16 15 14 14 13 15 14
18 17 16 15 13 8 8 5 5 4 4 4 4 5 4 4 4 4 3 3 4 5 6 6 5 6 7 9 8 9 7 7 7 4 5 18 17 16 15 14 14 14 16
16 16 15 16 14 10 8 8 6 4 5 4 4 4 5 4 4 4 4 4 4 4 4 5 5 5 6 8 8 8 6 5 6 7 5 7 18 16 14 14 13 14 13
16 16 16 15 15 11 9 8 6 6 5 5 4 6 6 5 5 6 5 4 4 4 7 6 6 8 7 7 8 5 5 5 5 7 5 5 7 16 16 15 14 14 14
15 17 14 14 14 12 9 8 6 5 5 5 4 4 6 6 6 5 6 5 6 6 6 5 4 7 7 6 4 4 4 5 5 5 5 5 5 5 10 15 15 14 13
16 16 15 14 15 13 9 7 6 7 5 5 4 4 6 6 7 6 5 5 7 6 5 6 3 6 7 6 5 4 4 4 4 4 6 6 6 5 4 10 15 14 12
14 16 15 13 14 13 8 6 4 4 4 4 5 5 7 5 7 6 5 7 7 6 5 4 7 4 6 6 6 5 4 4 3 4 4 4 5 6 4 5 4 6 13
13 15 15 15 14 12 8 9 7 9 6 4 5 7 7 6 7 7 6 8 7 8 8 8 6 10 4 5 5 2 3 3 3 3 3 3 4 4 4 4 3 3 4
16 16 16 16 15 13 10 9 4 6 3 3 4 6 7 7 8 8 9 8 9 6 8 10 10 6 3 7 4 3 2 1 1 1 2 3 3 2 3 3 4 4 4
18 19 18 17 16 15 13 7 3 4 3 2 3 4 5 7 8 8 8 8 9 8 9 10 9 7 5 6 4 4 3 4 2 1 2 2 3 1 1 2 2 2 4
22 17 18 18 17 15 15 12 15 10 9 6 8 5 6 7 7 7 8 8 9 7 9 10 9 5 6 7 1 2 1 4 4 1 2 2 2 4 3 2 1 1 3
18 18 16 16 17 17 16 16 13 12 9 3 3 8 8 6 7 7 8 8 8 7 7 10 11 9 6 6 4 4 1 1 2 3 2 2 1 2 3 3 3 2 1
16 16 17 19 19 18 18 19 19 18 9 7 8 8 8 5 6 7 7 7 7 8 9 9 10 11 9 5 5 4 5 5 4 4 2 2 3 2 3 3 4 3 3
Wind_Direction
211 166 171 157 154 156 138 130 120 123 124 122 121 110 107 103 100 97 93 92 87 83 79 76 77 78 72 66 62 61 59 54 45 40 40 52 73 66 62 59 64 64 68
137 168 163 171 156 151 139 127 126 129 128 125 120 112 108 108 101 94 90 88 87 82 81 81 83 76 65 64 71 73 62 53 46 44 41 39 57 73 71 72 75 70 64
141 153 153 160 145 142 132 130 127 133 131 127 124 115 109 105 101 91 85 75 87 82 80 85 81 68 62 61 84 71 63 55 47 43 42 31 36 75 80 81 71 67 66
129 124 125 135 135 130 130 126 132 138 136 132 130 123 112 107 103 96 83 82 85 89 84 83 81 67 60 85 79 72 65 54 44 39 27 32 32 79 86 78 73 68 63
119 122 123 127 129 131 131 133 140 138 140 136 132 120 113 111 103 96 85 87 79 78 82 85 78 66 73 82 79 70 61 51 42 31 21 36 56 88 83 78 72 67 60
119 120 121 130 136 138 141 144 145 146 148 146 132 115 119 113 105 98 96 82 76 90 86 83 76 74 84 79 74 66 59 52 42 28 24 34 77 92 86 83 79 72 70
127 129 131 141 144 145 149 153 157 157 152 145 126 122 119 115 109 104 96 93 93 90 90 85 78 84 82 76 72 65 54 49 39 30 25 29 80 85 82 80 76 76 66
139 132 137 136 140 147 152 145 140 133 134 128 117 127 128 123 119 109 106 103 101 99 98 91 85 86 81 78 72 64 52 46 39 30 23 30 73 81 83 84 80 74 67
139 136 133 135 143 144 146 147 140 130 123 114 127 136 119 117 112 110 110 115 112 111 82 89 90 84 84 75 67 57 49 47 42 33 27 23 75 80 81 78 76 70 62
141 138 141 136 137 136 139 132 128 126 121 126 132 117 117 119 110 111 100 97 113 104 98 94 94 89 81 74 68 62 50 43 34 27 18 53 68 74 79 78 73 65 60
157 160 151 142 141 139 141 144 129 129 129 128 123 126 115 113 110 103 122 104 103 102 103 101 97 94 83 73 65 58 53 32 31 23 6 61 69 75 76 72 70 65 65
171 172 166 161 156 147 148 144 134 129 130 131 134 134 128 124 121 124 79 55 47 105 108 104 102 92 80 70 66 53 43 30 30 20 14 54 66 71 72 70 63 60 57
172 176 176 173 159 153 144 141 134 132 135 142 150 149 142 124 116 103 78 74 77 89 104 96 86 81 84 79 68 62 48 40 26 23 16 28 56 58 61 56 58 60 60
177 181 179 177 161 154 146 153 153 151 148 157 167 161 146 137 138 125 101 104 110 100 100 95 97 99 84 85 76 73 56 45 32 24 20 28 47 58 56 55 61 64 52
183 181 181 179 175 163 162 154 157 166 163 173 170 180 156 161 163 141 138 112 109 114 113 108 104 99 99 88 81 72 55 49 44 32 24 36 44 51 53 50 48 55 53
180 181 178 183 180 167 170 168 173 167 175 174 176 184 180 168 162 148 143 122 115 111 109 115 113 99 95 94 86 79 67 55 54 48 32 25 46 48 50 54 53 55 56
183 181 181 179 178 174 174 173 174 182 172 181 188 186 178 172 166 154 136 131 128 116 116 113 114 105 93 89 89 76 74 64 55 56 44 39 32 35 47 48 47 47 46
182 181 176 179 174 176 181 179 178 183 174 187 186 176 183 174 159 144 141 142 136 131 132 128 123 105 100 99 88 66 70 69 66 61 55 49 47 37 27 48 50 48 46
178 177 181 178 176 178 174 179 183 183 183 189 177 177 187 175 163 150 144 144 143 142 139 142 109 112 113 107 105 87 70 64 54 72 62 53 52 49 29 41 44 44 44
183 182 179 176 176 176 174 172 175 174 190 179 189 184 181 170 159 147 143 146 147 145 140 121 128 94 127 126 108 85 70 77 66 65 81 77 64 56 43 39 33 16 44
186 183 183 176 178 174 181 182 193 201 197 195 191 182 180 169 158 156 153 148 156 163 160 143 117 121 86 125 108 63 47 65 76 85 97 88 69 61 59 44 41 35 19
185 189 187 186 178 186 186 190 184 179 181 187 179 183 181 170 163 164 160 165 167 154 154 158 152 139 116 186 129 122 156 312 298 170 128 124 116 72 65 57 55 42 33
195 193 190 188 184 187 188 163 91 87 70 133 184 189 187 172 169 169 171 164 167 168 174 172 165 156 143 201 213 140 117 217 143 215 213 175 144 140 173 78 75 53 43
203 191 194 190 185 189 180 178 191 195 191 201 191 183 175 177 176 176 173 169 171 175 178 180 174 165 138 174 225 203 86 134 166 199 266 223 176 202 196 181 150 66 48
196 197 192 191 189 190 188 188 192 202 203 147 144 168 178 180 181 182 176 175 175 178 182 176 176 171 168 158 161 147 123 86 98 134 200 227 281 218 205 197 191 175 187
199 194 191 192 193 190 192 194 196 201 183 165 174 183 188 188 185 187 181 178 174 183 182 190 186 182 184 154 170 172 162 165 188 161 150 167 189 213 215 207 198 201 208